Weather History for KICR - April, 2013

Change the Weather History Date:

Tuesday, April 2, 2013

  Actual Average Record
Temperature  
Mean Temperature 40 °F 43 °F  
Max Temperature 56 °F 55 °F 69 °F (2011)
Min Temperature 24 °F 31 °F 16 °F (2009)
Degree Days  
Heating Degree Days 25 22  
Month to date heating degree days 57 44  
Since 1 July heating degree days 5732 5929  
Cooling Degree Days 0 0  
Month to date cooling degree days 0 0  
Year to date cooling degree days 0 0  
Moisture  
Dew Point 22 °F    
Average Humidity 51    
Maximum Humidity 75    
Minimum Humidity 26    
Precipitation  
Precipitation 0.00 in 0.05 in 0.05 in (2012)
Month to date precipitation 0.00 0.10  
Year to date precipitation 0.60 2.24  
Sea Level Pressure  
Sea Level Pressure 30.23 in    
Wind  
Wind Speed 10 mph (ESE)    
Max Wind Speed 20 mph    
Max Gust Speed 26 mph    
Visibility 10 miles    
Events      
T = Trace of Precipitation, MM = Missing Value Source: NWS Daily Summary

Daily Weather History Graph

Daily Weather History Graph

Search for Another Location

Airport or City:

Trip Planner

Search our weather history database for the weather conditions in past years. The results will help you decide how hot, cold, wet, or windy it might be!

Date:

Astronomy

Apr. 02, 2013 Rise Set
Actual Time 7:18 AM CDT 8:07 PM CDT
Civil Twilight 6:49 AM CDT 8:36 PM CDT
Nautical Twilight 6:15 AM CDT 9:10 PM CDT
Astronomical Twilight 5:39 AM CDT 9:46 PM CDT
Moon 2:20 AM CDT (4/2) 12:04 PM CDT (4/2)
Length of Visible Light 13h 46m
Length of Day
12h 48m
Waning Gibbous, 55% of the Moon is Illuminated
Apr 2
Waning Gibbous
Apr 2
Last Quarter
Apr 10
New
Apr 18
First Quarter
Apr 25
Full

Hourly Weather History & Observations

Time (CDT) Temp. Windchill Dew Point Humidity Pressure Visibility Wind Dir Wind Speed Gust Speed Precip Events Conditions
12:53 AM 30.0 °F 23.2 °F 21.0 °F 69% 30.28 in 10.0 mi South 6.9 mph - N/A   Mostly Cloudy
1:53 AM 30.0 °F 24.1 °F 21.0 °F 69% 30.28 in 10.0 mi South 5.8 mph - N/A   Overcast
2:53 AM 32.0 °F 27.5 °F 21.0 °F 64% 30.27 in 10.0 mi South 4.6 mph - N/A   Overcast
3:53 AM 33.1 °F 26.9 °F 21.0 °F 61% 30.25 in 10.0 mi South 6.9 mph - N/A   Overcast
4:53 AM 32.0 °F 25.6 °F 19.9 °F 61% 30.24 in 10.0 mi South 6.9 mph - N/A   Overcast
5:53 AM 28.0 °F 19.3 °F 19.0 °F 69% 30.24 in 10.0 mi South 9.2 mph - N/A   Clear
6:53 AM 26.1 °F 20.5 °F 19.0 °F 75% 30.25 in 10.0 mi SSE 4.6 mph - N/A   Clear
7:53 AM 26.1 °F 19.4 °F 19.0 °F 75% 30.25 in 10.0 mi SE 5.8 mph - N/A   Clear
8:53 AM 34.0 °F 28.0 °F 23.0 °F 64% 30.25 in 10.0 mi ESE 6.9 mph - N/A   Clear
9:53 AM 41.0 °F 36.4 °F 25.0 °F 53% 30.24 in 10.0 mi ESE 6.9 mph - N/A   Clear
10:53 AM 45.0 °F 41.2 °F 26.1 °F 48% 30.24 in 10.0 mi ESE 6.9 mph - N/A   Clear
11:53 AM 50.0 °F - 23.0 °F 35% 30.22 in 10.0 mi East 12.7 mph 21.9 mph N/A   Clear
12:53 PM 51.1 °F - 21.9 °F 32% 30.22 in 10.0 mi East 15.0 mph - N/A   Clear
1:53 PM 53.1 °F - 21.9 °F 30% 30.21 in 10.0 mi East 11.5 mph 21.9 mph N/A   Clear
2:53 PM 55.0 °F - 23.0 °F 29% 30.20 in 10.0 mi East 13.8 mph 25.3 mph N/A   Clear
3:53 PM 55.9 °F - 23.0 °F 28% 30.19 in 10.0 mi ENE 10.4 mph 17.3 mph N/A   Clear
4:53 PM 55.0 °F - 21.9 °F 28% 30.18 in 10.0 mi ENE 11.5 mph 18.4 mph N/A   Clear
5:53 PM 54.0 °F - 21.9 °F 29% 30.19 in 10.0 mi ENE 11.5 mph - N/A   Clear
6:53 PM 52.0 °F - 21.9 °F 31% 30.19 in 10.0 mi East 15.0 mph - N/A   Clear
7:53 PM 46.9 °F - 21.9 °F 37% 30.21 in 10.0 mi East 13.8 mph - N/A   Clear
8:53 PM 42.1 °F 35.2 °F 21.9 °F 45% 30.21 in 10.0 mi East 12.7 mph - N/A   Clear
9:53 PM 36.0 °F 28.5 °F 21.0 °F 55% 30.22 in 10.0 mi ESE 10.4 mph - N/A   Clear
10:53 PM 34.0 °F 26.0 °F 21.0 °F 59% 30.22 in 10.0 mi ESE 10.4 mph - N/A   Clear
11:53 PM 35.1 °F 26.9 °F 21.9 °F 59% 30.21 in 10.0 mi ESE 11.5 mph - N/A   Clear